• en Suisse
  • Liste des pays
  • À 7 jours
  • Température de l'eau
  • Carte satellitaire
  • Carte météo
  • Widgets météo
  • user-avatar
    Se connecter

    Météo par heure à Lugi

    Ce jour, 24 Juin, Dimanche

    Heure Température Précipitation Vent Pression Humidité
    00:00 +11°C° 0 mm 0 m/s 752 mmHg 88%
    01:00 +12°C° 0 mm 1 m/s 752 mmHg 88%
    02:00 +12°C° 0 mm 1 m/s 752 mmHg 89%
    03:00 +12°C° 0,5 mm 1 m/s 751 mmHg 91%
    04:00 +12°C° 0,5 mm 2 m/s 751 mmHg 94%
    05:00 +12°C° 0,5 mm 2 m/s 751 mmHg 96%
    06:00 +11°C° 0,3 mm 3 m/s 750 mmHg 96%
    07:00 +11°C° 0,3 mm 3 m/s 750 mmHg 95%
    08:00 +11°C° 0 mm 4 m/s 750 mmHg 95%
    09:00 +12°C° 0,2 mm 4 m/s 749 mmHg 94%
    10:00 +12°C° 0,2 mm 5 m/s 749 mmHg 93%
    11:00 +12°C° 0,2 mm 5 m/s 748 mmHg 92%
    12:00 +12°C° 1,6 mm 5 m/s 748 mmHg 94%
    13:00 +12°C° 1,6 mm 5 m/s 748 mmHg 95%
    14:00 +12°C° 1,6 mm 4 m/s 747 mmHg 96%
    15:00 +13°C° 1,2 mm 4 m/s 747 mmHg 96%
    16:00 +13°C° 1,2 mm 4 m/s 747 mmHg 96%
    17:00 +14°C° 1,2 mm 4 m/s 747 mmHg 95%
    18:00 +13°C° 0,5 mm 4 m/s 748 mmHg 95%
    19:00 +13°C° 0,5 mm 4 m/s 748 mmHg 95%
    20:00 +12°C° 0,5 mm 4 m/s 748 mmHg 95%
    21:00 +12°C° 0,1 mm 4 m/s 748 mmHg 95%
    22:00 +11°C° 0,1 mm 4 m/s 749 mmHg 95%
    23:00 +10°C° 0,1 mm 5 m/s 749 mmHg 94%

    Demain, 25 Juin, Lundi

    Heure Température Précipitation Vent Pression Humidité
    00:00 +9°C° 0 mm 5 m/s 749 mmHg 94%
    01:00 +9°C° 0 mm 5 m/s 750 mmHg 93%
    02:00 +9°C° 0 mm 5 m/s 750 mmHg 93%
    03:00 +9°C° 0 mm 5 m/s 751 mmHg 93%
    04:00 +8°C° 0 mm 4 m/s 751 mmHg 92%
    05:00 +8°C° 0 mm 4 m/s 752 mmHg 92%
    06:00 +10°C° 0 mm 4 m/s 752 mmHg 88%
    07:00 +11°C° 0 mm 4 m/s 752 mmHg 84%
    08:00 +12°C° 0 mm 4 m/s 753 mmHg 80%
    09:00 +13°C° 0 mm 4 m/s 753 mmHg 72%
    10:00 +15°C° 0 mm 4 m/s 753 mmHg 65%
    11:00 +18°C° 0 mm 4 m/s 754 mmHg 57%
    12:00 +18°C° 0,1 mm 4 m/s 754 mmHg 58%
    13:00 +19°C° 0,1 mm 4 m/s 754 mmHg 59%
    14:00 +20°C° 0,1 mm 3 m/s 754 mmHg 61%
    15:00 +19°C° 0,6 mm 3 m/s 754 mmHg 68%
    16:00 +19°C° 0,6 mm 3 m/s 754 mmHg 75%
    17:00 +18°C° 0,6 mm 3 m/s 754 mmHg 83%
    18:00 +17°C° 0,3 mm 3 m/s 755 mmHg 86%
    19:00 +16°C° 0,3 mm 2 m/s 755 mmHg 89%
    20:00 +15°C° 0,3 mm 2 m/s 755 mmHg 92%
    21:00 +14°C° 0,2 mm 2 m/s 756 mmHg 93%
    22:00 +13°C° 0,2 mm 2 m/s 756 mmHg 95%
    23:00 +12°C° 0,2 mm 2 m/s 757 mmHg 97%

    Après-demain, 26 Juin, Mardi

    Heure Température Précipitation Vent Pression Humidité
    00:00 +12°C° 0 mm 2 m/s 757 mmHg 97%
    01:00 +10°C° 0 mm 2 m/s 757 mmHg 97%
    02:00 +10°C° 0 mm 2 m/s 757 mmHg 98%
    03:00 +10°C° 0 mm 2 m/s 758 mmHg 98%
    04:00 +10°C° 0 mm 2 m/s 758 mmHg 98%
    05:00 +10°C° 0 mm 2 m/s 758 mmHg 98%
    06:00 +13°C° 0 mm 2 m/s 759 mmHg 93%
    07:00 +14°C° 0 mm 2 m/s 759 mmHg 88%
    08:00 +16°C° 0 mm 2 m/s 759 mmHg 83%
    09:00 +17°C° 0,1 mm 2 m/s 760 mmHg 78%
    10:00 +18°C° 0,1 mm 3 m/s 760 mmHg 73%
    11:00 +19°C° 0,1 mm 3 m/s 760 mmHg 67%
    12:00 +20°C° 0,2 mm 2 m/s 760 mmHg 64%
    13:00 +20°C° 0,2 mm 2 m/s 760 mmHg 61%
    14:00 +21°C° 0,2 mm 2 m/s 760 mmHg 58%
    15:00 +21°C° 0,2 mm 2 m/s 760 mmHg 59%
    16:00 +21°C° 0,2 mm 2 m/s 760 mmHg 60%
    17:00 +21°C° 0,2 mm 2 m/s 760 mmHg 61%
    18:00 +21°C° 0,1 mm 1 m/s 760 mmHg 67%
    19:00 +20°C° 0,1 mm 1 m/s 761 mmHg 73%
    20:00 +17°C° 0,1 mm 0 m/s 761 mmHg 78%
    21:00 +18°C° 0 mm 1 m/s 761 mmHg 82%
    22:00 +15°C° 0 mm 1 m/s 761 mmHg 85%
    23:00 +14°C° 0 mm 1 m/s 762 mmHg 89%

    27 Juin, Mercredi

    Heure Température Précipitation Vent Pression Humidité
    00:00 +14°C° 0 mm 1 m/s 762 mmHg 90%
    01:00 +13°C° 0 mm 1 m/s 762 mmHg 91%
    02:00 +13°C° 0 mm 1 m/s 762 mmHg 92%
    03:00 +14°C° 0 mm 1 m/s 762 mmHg 92%
    04:00 +14°C° 0 mm 1 m/s 763 mmHg 91%
    05:00 +14°C° 0 mm 1 m/s 763 mmHg 90%
    06:00 +16°C° 0 mm 1 m/s 763 mmHg 83%
    07:00 +20°C° 0 mm 1 m/s 763 mmHg 76%
    08:00 +22°C° 0 mm 1 m/s 763 mmHg 70%
    09:00 +23°C° 0 mm 1 m/s 763 mmHg 64%
    10:00 +25°C° 0 mm 2 m/s 763 mmHg 57%
    11:00 +26°C° 0 mm 2 m/s 763 mmHg 51%
    12:00 +27°C° 0 mm 2 m/s 763 mmHg 50%
    13:00 +27°C° 0 mm 2 m/s 763 mmHg 48%
    14:00 +28°C° 0 mm 2 m/s 763 mmHg 47%
    15:00 +27°C° 0,1 mm 2 m/s 763 mmHg 50%
    16:00 +27°C° 0,1 mm 2 m/s 763 mmHg 54%
    17:00 +27°C° 0,1 mm 2 m/s 763 mmHg 57%
    18:00 +25°C° 0,1 mm 2 m/s 763 mmHg 64%
    19:00 +24°C° 0,1 mm 2 m/s 763 mmHg 70%
    20:00 +21°C° 0,1 mm 2 m/s 763 mmHg 77%
    21:00 +20°C° 0 mm 2 m/s 763 mmHg 79%
    22:00 +19°C° 0 mm 2 m/s 764 mmHg 81%
    23:00 +17°C° 0 mm 2 m/s 764 mmHg 83%

    28 Juin, Jeudi

    Heure Température Précipitation Vent Pression Humidité
    00:00 +17°C° 0 mm 2 m/s 764 mmHg 84%
    01:00 +16°C° 0 mm 2 m/s 764 mmHg 85%
    02:00 +16°C° 0 mm 2 m/s 764 mmHg 86%
    03:00 +16°C° 0 mm 2 m/s 764 mmHg 86%
    04:00 +16°C° 0 mm 2 m/s 764 mmHg 85%
    05:00 +16°C° 0 mm 2 m/s 764 mmHg 85%
    06:00 +18°C° 0 mm 2 m/s 763 mmHg 79%
    07:00 +20°C° 0 mm 2 m/s 763 mmHg 73%
    08:00 +23°C° 0 mm 2 m/s 763 mmHg 67%
    09:00 +25°C° 0 mm 3 m/s 763 mmHg 60%
    10:00 +26°C° 0 mm 3 m/s 762 mmHg 53%
    11:00 +28°C° 0 mm 3 m/s 762 mmHg 46%
    12:00 +29°C° 0 mm 4 m/s 761 mmHg 45%
    13:00 +29°C° 0 mm 4 m/s 761 mmHg 44%
    14:00 +30°C° 0 mm 4 m/s 760 mmHg 42%
    15:00 +29°C° 0 mm 4 m/s 760 mmHg 44%
    16:00 +29°C° 0 mm 4 m/s 759 mmHg 46%
    17:00 +29°C° 0 mm 4 m/s 758 mmHg 48%
    18:00 +27°C° 0 mm 3 m/s 758 mmHg 56%
    19:00 +26°C° 0 mm 3 m/s 758 mmHg 64%
    20:00 +24°C° 0 mm 3 m/s 758 mmHg 72%
    21:00 +22°C° 0 mm 3 m/s 757 mmHg 73%
    22:00 +21°C° 0 mm 3 m/s 757 mmHg 75%
    23:00 +20°C° 0 mm 3 m/s 757 mmHg 77%

    29 Juin, Vendredi

    Heure Température Précipitation Vent Pression Humidité
    00:00 +19°C° 0,1 mm 3 m/s 757 mmHg 79%
    01:00 +19°C° 0,1 mm 3 m/s 756 mmHg 80%
    02:00 +19°C° 0,1 mm 3 m/s 756 mmHg 82%
    03:00 +19°C° 0 mm 3 m/s 755 mmHg 83%
    04:00 +19°C° 0 mm 3 m/s 755 mmHg 84%
    05:00 +19°C° 0 mm 3 m/s 754 mmHg 86%
    06:00 +20°C° 0 mm 3 m/s 754 mmHg 82%
    07:00 +22°C° 0 mm 3 m/s 753 mmHg 79%
    08:00 +23°C° 0 mm 4 m/s 753 mmHg 76%
    09:00 +25°C° 0 mm 4 m/s 753 mmHg 73%
    10:00 +26°C° 0 mm 4 m/s 752 mmHg 71%
    11:00 +27°C° 0 mm 4 m/s 752 mmHg 68%
    12:00 +27°C° 0,4 mm 4 m/s 751 mmHg 70%
    13:00 +27°C° 0,4 mm 4 m/s 751 mmHg 73%
    14:00 +27°C° 0,4 mm 4 m/s 750 mmHg 75%
    15:00 +27°C° 0,3 mm 4 m/s 750 mmHg 77%
    16:00 +27°C° 0,3 mm 4 m/s 750 mmHg 79%
    17:00 +27°C° 0,3 mm 4 m/s 749 mmHg 81%
    18:00 +26°C° 0,5 mm 3 m/s 749 mmHg 84%
    19:00 +25°C° 0,5 mm 3 m/s 749 mmHg 88%
    20:00 +24°C° 0,5 mm 2 m/s 748 mmHg 91%
    21:00 +23°C° 0,6 mm 2 m/s 748 mmHg 93%
    22:00 +21°C° 0,6 mm 2 m/s 748 mmHg 94%
    23:00 +21°C° 0,6 mm 2 m/s 748 mmHg 96%
    Voir plus